Port Huron, MI

12:04 PM EDT on April 21, 2018 (GMT -0400)
Saint Clair County International

Weather History for KPHN - February, 2013

Change the Weather History Date:

Tuesday, February 26, 2013

  Actual Average (KMTC) Record (KMTC)
Temperature  
Mean Temperature 34 °F -  
Max Temperature 39 °F 37 °F 59 °F (1976)
Min Temperature 28 °F 21 °F -5 °F (1963)
Degree Days  
Heating Degree Days 32    
Moisture  
Dew Point 27 °F    
Average Humidity 79    
Maximum Humidity 100    
Minimum Humidity 61    
Precipitation  
Precipitation 0.00 in - - ()
Sea Level Pressure  
Sea Level Pressure 29.88 in    
Wind  
Wind Speed 10 mph (ENE)    
Max Wind Speed 20 mph    
Max Gust Speed 28 mph    
Visibility 7 miles    
Events Rain , Snow    
Averages and records for this station are not official NWS values.
T = Trace of Precipitation, MM = Missing Value Source: NWS Daily Summary

Daily Weather History Graph

Daily Weather History Graph

Search for Another Location

Airport or City:

Astronomy

Feb. 26, 2013 Rise Set
Actual Time 7:10 AM EST 6:16 PM EST
Civil Twilight 6:41 AM EST 6:44 PM EST
Nautical Twilight 6:09 AM EST 7:17 PM EST
Astronomical Twilight 5:36 AM EST 7:50 PM EST
Moon 7:34 PM EST (2/26) 7:09 AM EST (2/26)
Length of Visible Light 12h 02m
Length of Day
11h 05m
Full, 99% of the Moon is Illuminated
Feb 26
Full
Mar 4
Last Quarter
Mar 11
New
Mar 19
First Quarter
Mar 27
Full

Hourly Weather History & Observations

Time (EST) Temp. Windchill Dew Point Humidity Pressure Visibility Wind Dir Wind Speed Gust Speed Precip Events Conditions
12:18 AM 30.2 °F 24.3 °F 23.0 °F 75% 30.15 in 10.0 mi East 5.8 mph - N/A   Clear
12:38 AM 30.2 °F 23.4 °F 23.0 °F 75% 30.15 in 10.0 mi East 6.9 mph - N/A   Clear
12:58 AM 30.2 °F 22.6 °F 23.0 °F 75% 30.14 in 10.0 mi East 8.1 mph - N/A   Clear
1:18 AM 30.2 °F 22.6 °F 23.0 °F 75% 30.14 in 10.0 mi East 8.1 mph - N/A   Clear
1:39 AM 30.2 °F 21.9 °F 23.0 °F 75% 30.12 in 10.0 mi ENE 9.2 mph - N/A   Clear
1:58 AM 30.2 °F 22.6 °F 23.0 °F 75% 30.12 in 10.0 mi East 8.1 mph - N/A   Clear
2:18 AM 30.2 °F 23.4 °F 23.0 °F 75% 30.13 in 10.0 mi East 6.9 mph - N/A   Clear
2:39 AM 30.2 °F 23.4 °F 23.0 °F 75% 30.13 in 10.0 mi ENE 6.9 mph - N/A   Clear
2:58 AM 30.2 °F 23.4 °F 23.0 °F 75% 30.13 in 10.0 mi East 6.9 mph - N/A   Clear
3:19 AM 30.2 °F 22.6 °F 23.0 °F 75% 30.11 in 10.0 mi ENE 8.1 mph - N/A   Clear
3:38 AM 30.2 °F 21.9 °F 23.0 °F 75% 30.10 in 10.0 mi ENE 9.2 mph - N/A   Clear
3:58 AM 30.2 °F 21.9 °F 23.0 °F 75% 30.11 in 10.0 mi ENE 9.2 mph - N/A   Clear
4:18 AM 30.2 °F 22.6 °F 23.0 °F 75% 30.10 in 10.0 mi ENE 8.1 mph - N/A   Clear
4:38 AM 30.2 °F 21.9 °F 23.0 °F 75% 30.08 in 10.0 mi NE 9.2 mph - N/A   Clear
4:59 AM 28.4 °F 20.4 °F 21.2 °F 74% 30.07 in 10.0 mi NE 8.1 mph - N/A   Clear
5:18 AM 28.4 °F 20.4 °F 23.0 °F 80% 30.08 in 10.0 mi NE 8.1 mph - N/A   Clear
5:39 AM 28.4 °F 19.7 °F 23.0 °F 80% 30.05 in 10.0 mi NE 9.2 mph - N/A   Clear
5:59 AM 28.4 °F 21.2 °F 23.0 °F 80% 30.05 in 10.0 mi NE 6.9 mph - N/A   Clear
6:18 AM 28.4 °F 19.7 °F 23.0 °F 80% 30.02 in 10.0 mi NNE 9.2 mph - N/A   Clear
6:39 AM 30.2 °F 22.6 °F 23.0 °F 75% 30.01 in 10.0 mi NE 8.1 mph - N/A   Clear
6:58 AM 30.2 °F 21.9 °F 23.0 °F 75% 30.02 in 10.0 mi NE 9.2 mph - N/A   Clear
7:18 AM 30.2 °F 22.6 °F 23.0 °F 75% 30.02 in 10.0 mi ENE 8.1 mph - N/A   Clear
7:38 AM 32.0 °F 22.5 °F 23.0 °F 69% 30.03 in 10.0 mi East 12.7 mph - N/A   Clear
7:58 AM 30.2 °F 21.9 °F 23.0 °F 75% 30.03 in 10.0 mi East 9.2 mph - N/A   Clear
8:19 AM 32.0 °F 23.6 °F 23.0 °F 69% 30.03 in 10.0 mi East 10.4 mph - N/A   Clear
8:38 AM 32.0 °F 23.0 °F 23.0 °F 69% 30.02 in 10.0 mi ENE 11.5 mph - N/A   Clear
8:59 AM 32.0 °F 23.6 °F 23.0 °F 69% 30.01 in 10.0 mi ENE 10.4 mph - N/A   Clear
9:18 AM 33.8 °F 26.4 °F 24.8 °F 70% 30.01 in 10.0 mi ENE 9.2 mph - N/A   Clear
9:38 AM 33.8 °F 25.3 °F 24.8 °F 70% 30.01 in 10.0 mi East 11.5 mph 18.4 mph N/A   Clear
9:58 AM 33.8 °F 24.8 °F 24.8 °F 70% 29.99 in 10.0 mi ENE 12.7 mph 17.3 mph N/A   Clear
10:18 AM 33.8 °F 23.9 °F 24.8 °F 70% 29.97 in 10.0 mi ENE 15.0 mph - N/A   Clear
10:39 AM 33.8 °F 23.5 °F 26.6 °F 75% 29.94 in 10.0 mi ENE 16.1 mph 19.6 mph N/A   Clear
10:58 AM 35.6 °F 26.6 °F 26.6 °F 70% 29.93 in 10.0 mi ENE 13.8 mph 19.6 mph N/A   Clear
11:19 AM 35.6 °F 25.9 °F 26.6 °F 70% 29.92 in 10.0 mi ENE 16.1 mph 20.7 mph N/A   Clear
11:39 AM 35.6 °F 26.6 °F 26.6 °F 70% 29.91 in 10.0 mi ENE 13.8 mph 17.3 mph N/A   Clear
11:58 AM 35.6 °F 25.5 °F 26.6 °F 70% 29.91 in 10.0 mi ENE 17.3 mph - N/A   Clear
12:19 PM 39.2 °F 31.2 °F 28.4 °F 65% 29.89 in 10.0 mi ENE 13.8 mph 21.9 mph N/A   Clear
12:38 PM 39.2 °F 29.6 °F 28.4 °F 65% 29.88 in 10.0 mi ENE 19.6 mph 25.3 mph N/A   Clear
12:58 PM 39.2 °F 30.2 °F 28.4 °F 65% 29.86 in 10.0 mi East 17.3 mph 24.2 mph N/A   Clear
1:19 PM 39.2 °F 30.2 °F 28.4 °F 65% 29.84 in 10.0 mi East 17.3 mph 23.0 mph N/A   Scattered Clouds
1:38 PM 39.2 °F 29.8 °F 26.6 °F 61% 29.83 in 10.0 mi East 18.4 mph 27.6 mph N/A   Mostly Cloudy
1:59 PM 37.4 °F 28.5 °F 26.6 °F 65% 29.82 in 10.0 mi East 15.0 mph 21.9 mph N/A   Overcast
2:18 PM 37.4 °F 28.2 °F 28.4 °F 70% 29.79 in 10.0 mi East 16.1 mph 23.0 mph N/A   Overcast
2:38 PM 37.4 °F 27.8 °F 28.4 °F 70% 29.78 in 10.0 mi East 17.3 mph 23.0 mph N/A   Overcast
2:59 PM 37.4 °F 27.5 °F 28.4 °F 70% 29.77 in 7.0 mi East 18.4 mph 21.9 mph N/A Snow Light Snow
3:18 PM 37.4 °F 28.5 °F 30.2 °F 75% 29.75 in 5.0 mi ENE 15.0 mph 21.9 mph N/A Rain Light Rain
3:39 PM 37.4 °F 28.2 °F 30.2 °F 75% 29.74 in 5.0 mi East 16.1 mph 21.9 mph N/A   Overcast
3:58 PM 37.4 °F 27.5 °F 30.2 °F 75% 29.73 in 5.0 mi East 18.4 mph 24.2 mph N/A   Overcast
4:18 PM 35.6 °F 27.1 °F 32.0 °F 87% 29.74 in 4.0 mi East 12.7 mph - N/A   Overcast
4:39 PM 35.6 °F 28.0 °F 32.0 °F 87% 29.74 in 3.0 mi East 10.4 mph - N/A   Overcast
4:58 PM 35.6 °F 25.9 °F 32.0 °F 87% 29.73 in 3.0 mi East 16.1 mph - N/A   Overcast
5:19 PM 35.6 °F 27.1 °F 32.0 °F 87% 29.73 in 4.0 mi East 12.7 mph - N/A   Overcast
5:38 PM 35.6 °F 27.1 °F 32.0 °F 87% 29.72 in 5.0 mi East 12.7 mph - N/A Snow Light Snow
5:58 PM 35.6 °F 26.6 °F 32.0 °F 87% 29.71 in 4.0 mi East 13.8 mph - N/A Snow Light Snow
6:19 PM 35.6 °F 26.6 °F 32.0 °F 87% 29.71 in 3.0 mi East 13.8 mph 19.6 mph N/A   Overcast
6:38 PM 35.6 °F 27.1 °F 32.0 °F 87% 29.70 in 4.0 mi East 12.7 mph 19.6 mph N/A Snow Light Snow
6:59 PM 35.6 °F 27.1 °F 32.0 °F 87% 29.69 in 5.0 mi ENE 12.7 mph 18.4 mph N/A Snow Light Snow
7:18 PM 35.6 °F 26.6 °F 32.0 °F 87% 29.68 in 4.0 mi ENE 13.8 mph 20.7 mph N/A   Overcast
7:38 PM 35.6 °F 26.2 °F 32.0 °F 87% 29.68 in 2.5 mi ENE 15.0 mph 20.7 mph N/A Snow Light Snow
7:59 PM 33.8 °F 23.9 °F 32.0 °F 93% 29.67 in 1.8 mi ENE 15.0 mph - N/A Snow Light Snow
8:18 PM 33.8 °F 23.9 °F 32.0 °F 93% 29.66 in 2.0 mi East 15.0 mph 19.6 mph N/A Snow Light Snow
8:38 PM 33.8 °F 24.3 °F 33.8 °F 100% 29.66 in 1.8 mi East 13.8 mph 18.4 mph N/A Snow Light Snow
8:59 PM 33.8 °F 24.8 °F 33.8 °F 100% 29.64 in 1.5 mi East 12.7 mph - N/A Snow Light Snow
9:18 PM 33.8 °F 25.8 °F 32.0 °F 93% 29.64 in 0.8 mi East 10.4 mph 17.3 mph N/A Snow Snow
9:39 PM 33.8 °F 25.3 °F 33.8 °F 100% 29.63 in 1.5 mi East 11.5 mph 18.4 mph N/A Snow Light Snow
9:58 PM 33.8 °F 26.4 °F 33.8 °F 100% 29.62 in 1.5 mi East 9.2 mph 16.1 mph N/A Snow Light Snow
10:18 PM 33.8 °F 24.3 °F 32.0 °F 93% 29.61 in 0.8 mi East 13.8 mph - N/A Snow Snow
10:39 PM 33.8 °F 25.8 °F 33.8 °F 100% 29.61 in 0.5 mi East 10.4 mph - N/A Snow Light Snow
10:58 PM 33.8 °F 23.9 °F 33.8 °F 100% 29.60 in 2.0 mi ENE 15.0 mph 19.6 mph N/A Snow Light Snow
11:19 PM 33.8 °F 25.8 °F 33.8 °F 100% 29.59 in 2.0 mi East 10.4 mph 21.9 mph N/A Snow Light Snow
11:38 PM 33.8 °F 25.3 °F 33.8 °F 100% 29.58 in 2.0 mi East 11.5 mph 17.3 mph N/A Snow Light Snow
11:58 PM 35.6 °F 27.1 °F 33.8 °F 93% 29.57 in 4.0 mi East 12.7 mph 23.0 mph N/A Snow Light Snow